,

(GMT )
Entrance

Weather History for CWEL - January, 2013

Change the Weather History Date:

Friday, January 4, 2013

  Actual Average Record
Temperature  
Mean Temperature 40 °F -  
Max Temperature 43 °F - - ()
Min Temperature 36 °F - - ()
Degree Days  
Heating Degree Days 26    
Moisture  
Dew Point -    
Average Humidity    
Maximum Humidity    
Minimum Humidity    
Precipitation  
Precipitation 0.04 in - - ()
Sea Level Pressure  
Sea Level Pressure 30.21 in    
Wind  
Wind Speed 9 mph ()    
Max Wind Speed 16 mph    
Max Gust Speed -    
T = Trace of Precipitation, MM = Missing Value Source: Averaged Metar Reports

Daily Weather History Graph

Daily Weather History Graph

Search for Another Location

Airport or City:

Trip Planner

Search our weather history database for the weather conditions in past years. The results will help you decide how hot, cold, wet, or windy it might be!

Date:

Astronomy

Jan. 04, 2013 Rise Set
Actual Time 8:09 AM PST 4:31 PM PST
Civil Twilight 7:32 AM PST 5:08 PM PST
Nautical Twilight 6:52 AM PST 5:48 PM PST
Astronomical Twilight 6:13 AM PST 6:27 PM PST
Moon No Moon Rise 11:13 AM PST (1/4)
Length of Visible Light 9h 35m
Length of Day
8h 21m
Waning Gibbous, 54% of the Moon is Illuminated
Jan 4
Waning Gibbous
Jan 4
Last Quarter
Jan 11
New
Jan 18
First Quarter
Jan 26
Full

Hourly Weather History & Observations

Time (PST) Temp. Windchill Dew Point Humidity Pressure Visibility Wind Dir Wind Speed Gust Speed Precip Events Conditions
12:00 AM 39.4 °F 31.8 °F - N/A% 30.12 in - SSE 12.7 mph - 0.01 in   Unknown
1:00 AM 38.1 °F 33.7 °F - N/A% 30.13 in - SSW 5.8 mph - N/A   Unknown
2:00 AM 38.3 °F 33.9 °F - N/A% 30.15 in - South 5.8 mph - 0.02 in   Unknown
3:00 AM 38.5 °F 34.1 °F - N/A% 30.17 in - SSW 5.8 mph - 0.01 in   Unknown
4:00 AM 38 °F - - % 30.18 in - SSW 4.6 mph - -  
4:00 AM 38.5 °F 35.0 °F - N/A% 30.18 in - SSW 4.6 mph - N/A   Unknown
5:00 AM 40.8 °F 34.1 °F - N/A% 30.18 in - ESE 11.5 mph - 0.01 in   Unknown
6:00 AM 40.1 °F 34.7 °F - N/A% 30.20 in - SSE 8.1 mph - N/A   Unknown
7:00 AM 40.5 °F 34.6 °F - N/A% 30.22 in - SSE 9.2 mph - N/A   Unknown
8:00 AM 41.5 °F 33.8 °F - N/A% 30.23 in - ESE 15.0 mph - N/A   Unknown
9:00 AM 41.7 °F 33.7 °F - N/A% 30.25 in - SE 16.1 mph - N/A   Unknown
10:00 AM 42 °F - - % 30.27 in - SE 16.1 mph - -  
10:00 AM 41.5 °F 33.5 °F - N/A% 30.27 in - SE 16.1 mph - N/A   Unknown
11:00 AM 41.7 °F 34.1 °F - N/A% 30.28 in - SE 15.0 mph - N/A   Unknown
12:00 PM 41.9 °F 34.3 °F - N/A% 30.27 in - SE 15.0 mph - N/A   Unknown
1:00 PM 42.3 °F 34.8 °F - N/A% 30.26 in - SE 15.0 mph - N/A   Unknown
2:00 PM 42.1 °F 35.2 °F - N/A% 30.25 in - ESE 12.7 mph - N/A   Unknown
3:00 PM 42.1 °F 35.7 °F - N/A% 30.25 in - SE 11.5 mph - N/A   Unknown
4:00 PM 42 °F - - % 30.26 in - SSE 10.4 mph - -  
4:00 PM 42.3 °F 36.3 °F - N/A% 30.26 in - SSE 10.4 mph - N/A   Unknown
5:00 PM 42.3 °F 36.8 °F - N/A% 30.24 in - SE 9.2 mph - N/A   Unknown
6:00 PM 42.4 °F 36.1 °F - N/A% 30.22 in - SE 11.5 mph - N/A   Unknown
7:00 PM 42.6 °F 36.8 °F - N/A% 30.22 in - SE 10.4 mph - N/A   Unknown
8:00 PM 42.6 °F 36.8 °F - N/A% 30.20 in - SE 10.4 mph - N/A   Unknown
9:00 PM 42.8 °F 37.0 °F - N/A% 30.19 in - SE 10.4 mph - N/A   Unknown
10:00 PM 42 °F - - % 30.17 in - South 8.1 mph - -  
10:00 PM 42.4 °F 37.5 °F - N/A% 30.17 in - South 8.1 mph - N/A   Unknown
11:00 PM 43.0 °F 38.2 °F - N/A% 30.19 in - South 8.1 mph - N/A   Unknown